Hourly Data Report for May 18, 2012

All times are specified in Local Standard Time (LST). Add 1 hour to adjust for Daylight Saving Time where and when it is observed.

ST. JOHN'S INTL A
NEWFOUNDLAND

47°37'07.000" N
52°45'09.000" W
140.50 m
8403505
71801
YYT

Download Data

Hourly Data (May 2012)
Hourly Data Report for May 18, 2012
Temp Definition
°C
Dew Point Temp Definition
°C
Rel Hum Definition
%
Wind Dir Definition
10's deg

Wind Spd Definition
km/h
Visibility Definition
km
Stn Press Definition
kPa
Hmdx Definition


Wind Chill Definition


Weather Definition


TIME
00:30 Legend Double Dagger 15.1 14.3 95 22 46 10.0 99.82     Rain Showers
01:30 Legend Double Dagger 14.2 13.6 96 21 41 10.0 99.80     Rain
02:30 Legend Double Dagger 14.1 13.5 96 22 32 10.0 99.75     Rain
03:30 Legend Double Dagger 13.6 13.1 97 21 30 10.0 99.72     Rain
04:30 Legend Double Dagger 13.1 12.8 98 22 29 10.0 99.69     Moderate Rain
05:30 Legend Double Dagger 12.8 12.2 96 24 42 4.8 99.68     Moderate Rain
06:30 Legend Double Dagger 12.1 11.5 96 22 30 10.0 99.63     Rain
07:30 Legend Double Dagger 11.3 10.9 97 25 43 10.0 99.71     Drizzle
08:30 Legend Double Dagger 11.4 11.1 98 24 28 10.0 99.70     Cloudy
09:30 Legend Double Dagger 11.4 10.6 95 26 28 10.0 99.74     LegendNANA
10:30 Legend Double Dagger 11.6 10.8 95 25 22 10.0 99.75     LegendNANA
11:30 Legend Double Dagger 12.2 10.5 89 24 30 10.0 99.75     Mostly Cloudy
12:30 Legend Double Dagger 13.5 9.2 75 25 27 10.0 99.74     LegendNANA
13:30 Legend Double Dagger 15.4 8.5 63 25 31 10.0 99.72     LegendNANA
14:30 Legend Double Dagger 16.5 7.5 55 24 37 10.0 99.64     Mostly Cloudy
15:30 Legend Double Dagger 14.4 4.5 51 25 42 10.0 99.63     LegendNANA
16:30 Legend Double Dagger 13.4 2.4 47 25 38 10.0 99.60     LegendNANA
17:30 Legend Double Dagger 11.9 1.3 48 25 36 10.0 99.60     Mainly Clear
18:30 Legend Double Dagger 9.7 0.6 53 26 42 10.0 99.62     LegendNANA
19:30 Legend Double Dagger 8.0 0.7 60 26 40 10.0 99.63     LegendNANA
20:30 Legend Double Dagger 6.7 1.0 67 26 31 10.0 99.70     Mainly Clear
21:30 Legend Double Dagger 6.0 0.8 69 26 29 10.0 99.74     LegendNANA
22:30 Legend Double Dagger 5.5 1.4 75 26 33 10.0 99.81     LegendNANA
23:30 Legend Double Dagger 4.8 2.0 82 26 28 10.0 99.84     Clear

Notes on Data Quality.

Legend

  • E = Estimated
  • M = Missing
  • NA = Not Available
  • ‡ = Partner data that is not subject to review by the National Climate Archives
Date modified: